FW0248 Weather Reports


time (UTC)temp
F
wind
direction
speed
knots
gust
knots
rain 1hr
in
rain 24hr
in
rain mn
in
humidity
%
barometer
mb
20220811225933 84 179 0.0 3.5 0.00 0.00 0.00 75 1015.7
20220811225821 84 179 0.0 1.7 0.00 0.00 0.00 76 1015.6
20220811225551 84 179 0.0 1.7 0.00 0.00 0.00 75 1015.6
20220811224321 84 179 0.0 3.5 0.00 0.00 0.00 74 1015.6
20220811224052 85 179 0.0 1.7 0.00 0.00 0.00 74 1015.8
20220811223559 84 179 0.0 1.7 0.00 0.00 0.00 73 1015.9
20220811223320 84 179 0.0 1.7 0.00 0.00 0.00 74 1015.7
20220811222552 84 179 0.0 1.7 0.00 0.00 0.00 73 1015.9
20220811221825 84 179 0.0 0.0 0.00 0.00 0.00 71 1016.0
20220811221821 84 179 0.0 0.0 0.00 0.00 0.00 73 1015.9
20220811221428 84 179 0.0 0.9 0.00 0.00 0.00 71 1016.0
20220811221051 84 179 0.0 0.0 0.00 0.00 0.00 70 1016.0
20220811215820 84 179 0.0 0.9 0.00 0.00 0.00 70 1015.9
20220811215322 84 179 0.0 0.0 0.00 0.00 0.00 69 1015.9
20220811214820 85 179 0.0 0.9 0.00 0.00 0.00 68 1016.0
20220811214552 85 179 0.0 0.9 0.00 0.00 0.00 69 1015.9
20220811213820 85 179 0.0 0.0 0.00 0.00 0.00 67 1016.1
20220811213320 86 179 0.0 0.9 0.00 0.00 0.00 67 1016.2
20220811213052 86 179 0.0 0.9 0.00 0.00 0.00 67 1016.3
20220811212321 86 179 0.0 0.9 0.00 0.00 0.00 66 1016.3
20220811211820 86 179 0.0 2.6 0.00 0.00 0.00 66 1016.1
20220811211551 87 179 0.0 2.6 0.00 0.00 0.00 65 1015.9
20220811210820 88 179 0.0 3.5 0.00 0.00 0.00 63 1016.0
20220811210555 89 179 0.9 2.6 0.00 0.00 0.00 62 1016.0
20220811210320 88 179 0.0 3.5 0.00 0.00 0.00 63 1016.0
20220811205320 89 179 0.9 4.3 0.00 0.00 0.00 62 1015.9
20220811204818 89 179 0.9 5.2 0.00 0.00 0.00 62 1015.9
20220811204553 89 179 0.9 5.2 0.00 0.00 0.00 64 1015.9
20220811204050 89 179 0.9 2.6 0.00 0.00 0.00 64 1015.9
20220811203322 89 179 0.9 2.6 0.00 0.00 0.00 64 1016.0
20220811203318 89 179 0.0 1.7 0.00 0.00 0.00 63 1015.9
20220811202549 89 179 0.9 3.5 0.00 0.00 0.00 65 1016.1
20220811202049 89 179 1.7 4.3 0.00 0.00 0.00 65 1016.1
20220811201318 88 179 0.9 4.3 0.00 0.00 0.00 67 1016.2
20220811200818 88 179 1.7 5.2 0.00 0.00 0.00 67 1016.2
20220811200319 87 179 1.7 5.2 0.00 0.00 0.00 68 1016.2
20220811195816 88 179 0.9 5.2 0.00 0.00 0.00 69 1016.3
20220811195320 87 179 1.7 5.2 0.00 0.00 0.00 70 1016.2
20220811195316 88 179 1.7 5.2 0.00 0.00 0.00 69 1016.2
20220811194316 87 179 2.6 6.1 0.00 0.00 0.00 69 1016.3
20220811194048 87 179 2.6 6.1 0.00 0.00 0.00 69 1016.5
20220811193316 87 179 1.7 5.2 0.00 0.00 0.00 68 1016.4
20220811193053 86 180 2.6 6.1 0.00 0.00 0.00 70 1016.7
20220811192817 87 180 1.7 5.2 0.00 0.00 0.00 71 1016.6
20220811191814 86 180 1.7 6.1 0.00 0.00 0.00 70 1016.8
20220811191312 87 182 0.9 4.3 0.00 0.00 0.00 68 1017.1
20220811190812 87 182 0.9 4.3 0.00 0.00 0.00 70 1017.1
20220811190312 88 182 0.9 1.7 0.00 0.00 0.00 70 1017.3
20220811185810 87 182 0.9 2.6 0.00 0.00 0.00 71 1017.3
20220811185310 87 182 0.0 2.6 0.00 0.00 0.00 72 1017.4
20220811184816 86 182 0.0 1.7 0.00 0.00 0.00 72 1017.7
20220811184811 86 182 0.0 1.7 0.00 0.00 0.00 71 1017.6
20220811184040 86 182 0.0 1.7 0.00 0.00 0.00 72 1017.9
20220811183308 86 182 0.0 2.6 0.00 0.00 0.00 71 1017.9
20220811183038 86 182 0.0 2.6 0.00 0.00 0.00 71 1018.0
20220811182306 86 182 0.0 2.6 0.00 0.00 0.00 72 1018.1
20220811182036 85 182 0.0 3.5 0.00 0.00 0.00 73 1018.1
20220811181303 85 182 0.9 3.5 0.00 0.00 0.00 74 1018.2
20220811180809 85 182 0.9 2.6 0.00 0.00 0.00 74 1018.2
20220811180805 84 182 0.9 2.6 0.00 0.00 0.00 75 1018.2
20220811180412 85 182 0.0 2.6 0.00 0.00 0.00 75 1018.3
20220811180035 84 182 0.9 2.6 0.00 0.00 0.00 75 1018.4
20220811174807 85 182 0.0 1.7 0.00 0.00 0.00 74 1018.5
20220811174802 84 182 0.9 3.5 0.00 0.00 0.00 76 1018.4
20220811174301 84 182 0.9 3.5 0.00 0.00 0.00 74 1018.4
20220811173909 84 182 0.9 2.6 0.00 0.00 0.00 75 1018.5
20220811173033 84 182 0.9 2.6 0.00 0.00 0.00 76 1018.6
20220811172910 82 182 0.9 2.6 0.00 0.00 0.00 78 1018.6
20220811172300 83 182 0.9 2.6 0.00 0.00 0.00 78 1018.6
20220811171259 82 182 0.9 2.6 0.00 0.00 0.00 79 1018.7
20220811170759 82 182 0.9 2.6 0.00 0.00 0.00 80 1018.7
20220811170259 81 182 0.9 2.6 0.00 0.00 0.00 80 1018.7
20220811170031 81 182 0.9 4.3 0.00 0.00 0.00 81 1018.7
20220811165306 80 182 0.0 1.7 0.00 0.00 0.00 82 1018.8
20220811165300 80 182 0.9 4.3 0.00 0.00 0.00 80 1018.7
20220811164759 80 182 0.0 1.7 0.00 0.00 0.00 81 1018.7
20220811164640 79 182 0.0 1.7 0.00 0.00 0.00 85 1018.9
20220811164030 80 182 0.0 1.7 0.00 0.00 0.00 83 1018.9
20220811162759 79 182 0.0 3.5 0.00 0.00 0.00 86 1018.9
20220811162532 78 182 0.0 3.5 0.00 0.00 0.00 86 1019.0
20220811161804 78 182 0.0 0.0 0.00 0.00 0.00 87 1019.1
20220811161759 78 182 0.0 1.7 0.00 0.00 0.00 87 1019.0
20220811160800 78 182 0.0 0.9 0.00 0.00 0.00 87 1019.1
20220811160259 79 182 0.0 0.9 0.00 0.00 0.00 85 1019.2
20220811160031 79 182 0.0 0.0 0.00 0.00 0.00 84 1019.2
20220811155910 79 182 0.0 0.0 0.00 0.00 0.00 84 1019.2
20220811155533 79 182 0.0 0.0 0.00 0.00 0.00 84 1019.1
20220811154301 79 182 0.0 0.0 0.00 0.00 0.00 84 1019.2
20220811154031 79 182 0.0 0.9 0.00 0.00 0.00 83 1019.2
20220811153259 79 182 0.0 0.9 0.00 0.00 0.00 83 1019.2
20220811153030 79 182 0.0 1.7 0.00 0.00 0.00 83 1019.2
20220811152259 79 182 0.0 1.7 0.00 0.00 0.00 82 1019.2
20220811151800 79 182 0.0 0.9 0.00 0.00 0.00 83 1019.2
20220811151259 79 182 0.0 0.0 0.00 0.00 0.00 83 1019.1
20220811151030 79 182 0.0 0.0 0.00 0.00 0.00 82 1019.0
20220811150530 79 182 0.0 0.0 0.00 0.00 0.00 83 1019.0
20220811145759 79 182 0.0 0.0 0.00 0.00 0.00 83 1019.1
20220811145300 79 182 0.0 0.0 0.00 0.00 0.00 82 1019.0
20220811144910 78 182 0.0 0.0 0.00 0.00 0.00 84 1018.8
20220811144759 79 182 0.0 0.0 0.00 0.00 0.00 84 1018.9
20220811144531 79 182 0.0 0.0 0.00 0.00 0.00 83 1018.9
20220811143305 78 182 0.0 1.7 0.00 0.00 0.00 84 1018.8
20220811143300 78 182 0.0 1.7 0.00 0.00 0.00 84 1018.8
20220811142530 78 182 0.0 0.9 0.00 0.00 0.00 84 1018.8
20220811141759 78 182 0.0 0.0 0.00 0.00 0.00 84 1018.8
20220811141259 78 182 0.0 0.0 0.00 0.00 0.00 84 1018.7
20220811141031 78 182 0.0 0.0 0.00 0.00 0.00 84 1018.7
20220811140906 78 182 0.0 0.0 0.00 0.00 0.00 85 1018.6
20220811140030 78 182 0.0 1.7 0.00 0.00 0.00 85 1018.5
20220811135305 77 182 0.0 2.6 0.00 0.00 0.00 86 1018.5
20220811135034 78 182 0.0 0.0 0.00 0.00 0.00 85 1018.7
20220811134800 78 182 0.0 2.6 0.00 0.00 0.00 84 1018.6
20220811133800 78 182 0.0 0.0 0.00 0.00 0.00 85 1018.7
20220811133259 78 182 0.0 0.0 0.00 0.00 0.00 85 1018.8
20220811133030 77 182 0.0 1.7 0.00 0.00 0.00 86 1018.8
20220811132530 77 182 0.0 1.7 0.00 0.00 0.00 86 1018.7
20220811131806 76 182 0.0 0.9 0.00 0.00 0.00 88 1018.8
20220811131801 76 182 0.0 0.9 0.00 0.00 0.00 86 1018.7
20220811130756 75 182 0.0 1.7 0.00 0.00 0.00 88 1018.8
20220811130527 75 182 0.0 1.7 0.00 0.00 0.00 88 1018.7
20220811130027 75 182 0.0 1.7 0.00 0.00 0.00 88 1018.7
20220811125300 74 182 0.0 0.9 0.00 0.00 0.00 89 1018.8
20220811125256 74 182 0.0 1.7 0.00 0.00 0.00 88 1018.8
20220811125140 74 182 0.0 0.9 0.00 0.00 0.00 90 1018.6
20220811124638 74 182 0.0 1.7 0.00 0.00 0.00 90 1018.7
20220811123526 74 182 0.0 1.7 0.00 0.00 0.00 90 1018.7
20220811122753 74 182 0.0 0.0 0.00 0.00 0.00 90 1018.7
20220811122252 74 182 0.0 0.0 0.00 0.00 0.00 90 1018.5
20220811121752 74 182 0.0 0.0 0.00 0.00 0.00 90 1018.7
20220811121252 74 182 0.0 0.0 0.00 0.00 0.00 91 1018.6
20220811120752 73 182 0.0 1.7 0.00 0.00 0.00 91 1018.6
20220811120523 73 182 0.0 1.7 0.00 0.00 0.00 91 1018.5
20220811120407 73 182 0.0 0.9 0.00 0.00 0.00 91 1018.6
20220811120401 73 182 0.0 1.7 0.00 0.00 0.00 91 1018.6
20220811115023 73 182 0.0 1.7 0.00 0.00 0.00 91 1018.6
20220811114902 73 182 0.0 1.7 0.00 0.00 0.00 91 1018.6
20220811113752 73 182 0.0 0.0 0.00 0.00 0.00 91 1018.6
20220811113250 73 182 0.0 0.0 0.00 0.00 0.00 91 1018.5
20220811113026 0 0.0 0.0 0.00 0.00 0.00 1018.6
20220811112750 73 182 0.0 0.0 0.00 0.00 0.00 91 1018.6
20220811111750 0 0.0 0.0 0.00 0.00 0.00 1018.5
20220811111520 0 0.0 0.0 0.00 0.00 0.00 1018.5
20220811110745 0 0.0 0.0 0.00 0.00 0.00 1018.6
20220811110659 0 0.0 0.0 0.00 0.00 0.00 1018.4
20220811110153 0 0.0 0.0 0.00 0.00 0.00 1018.6
20220811105422 0 0.0 0.0 0.00 0.00 0.00 1018.4
20220811105257 0 184 0.0 0.0 0.00 0.00 0.00 1018.4
20220811104419 0 184 0.0 0.0 0.00 0.00 0.00 1018.4
20220811103624 74 184 0.0 0.0 0.00 0.00 0.00 92 1018.4
20220811103123 74 184 0.0 0.0 0.00 0.00 0.00 92 1018.2
20220811102622 74 182 0.0 0.0 0.00 0.00 0.00 92 1018.1
20220811102121 74 182 0.0 0.0 0.00 0.00 0.00 92 1018.1
20220811101620 74 182 0.0 0.0 0.00 0.00 0.00 92 1018.2
20220811101355 74 182 0.0 0.0 0.00 0.00 0.00 92 1018.1
20220811101119 74 182 0.0 0.0 0.00 0.00 0.00 92 1018.1
20220811100119 74 182 0.0 0.0 0.00 0.00 0.00 91 1018.1
20220811095619 74 182 0.0 0.0 0.00 0.00 0.00 91 1018.1
20220811095114 74 182 0.0 0.0 0.00 0.00 0.00 91 1018.2
20220811094614 74 182 0.0 0.0 0.00 0.00 0.00 91 1018.2
20220811094114 74 182 0.0 0.0 0.00 0.00 0.00 91 1018.2
20220811093613 74 182 0.0 0.0 0.00 0.00 0.00 92 1018.2
20220811093345 74 182 0.0 0.0 0.00 0.00 0.00 92 1018.2
20220811092845 74 182 0.0 0.0 0.00 0.00 0.00 92 1018.2
20220811092115 74 182 0.0 0.0 0.00 0.00 0.00 92 1018.2
20220811091611 74 182 0.0 0.0 0.00 0.00 0.00 92 1018.3
20220811091112 74 182 0.0 0.0 0.00 0.00 0.00 92 1018.4
20220811090612 74 182 0.0 0.0 0.00 0.00 0.00 92 1018.3
20220811090342 74 182 0.0 0.0 0.00 0.00 0.00 92 1018.4
20220811085611 74 182 0.0 1.7 0.00 0.00 0.00 93 1018.4
20220811085342 74 182 0.0 1.7 0.00 0.00 0.00 93 1018.3
20220811084839 74 182 0.0 0.9 0.00 0.00 0.00 93 1018.4
20220811084339 74 182 0.0 0.0 0.00 0.00 0.00 93 1018.4
20220811083608 74 182 0.0 0.0 0.00 0.00 0.00 93 1018.4
20220811083341 74 182 0.0 0.0 0.00 0.00 0.00 93 1018.3
20220811082839 74 182 0.0 0.0 0.00 0.00 0.00 92 1018.2
20220811082107 74 182 0.0 0.0 0.00 0.00 0.00 92 1018.3
20220811081837 74 182 0.0 0.0 0.00 0.00 0.00 92 1018.3
20220811081341 74 182 0.0 0.0 0.00 0.00 0.00 92 1018.4
20220811081105 74 182 0.0 0.0 0.00 0.00 0.00 92 1018.4
20220811080337 74 182 0.0 0.0 0.00 0.00 0.00 91 1018.4
20220811075837 74 182 0.0 0.0 0.00 0.00 0.00 91 1018.5
20220811075336 74 182 0.0 0.0 0.00 0.00 0.00 91 1018.4
20220811074607 74 182 0.0 0.0 0.00 0.00 0.00 91 1018.4
20220811074106 74 182 0.0 0.0 0.00 0.00 0.00 91 1018.4
20220811073837 74 182 0.0 0.0 0.00 0.00 0.00 90 1018.5
20220811073336 74 182 0.0 0.0 0.00 0.00 0.00 90 1018.5
20220811072605 74 182 0.0 0.0 0.00 0.00 0.00 89 1018.5
20220811072105 74 182 0.0 0.0 0.00 0.00 0.00 89 1018.5
20220811071605 74 182 0.0 0.0 0.00 0.00 0.00 88 1018.5
20220811071106 75 182 0.0 0.0 0.00 0.00 0.00 88 1018.5
20220811070606 75 182 0.0 0.0 0.00 0.00 0.00 87 1018.5
20220811070336 75 182 0.0 0.0 0.00 0.00 0.00 86 1018.6
20220811065836 75 182 0.0 0.0 0.00 0.00 0.00 86 1018.7
20220811065106 75 182 0.0 0.0 0.00 0.00 0.00 85 1018.6
20220811064836 76 182 0.0 0.0 0.00 0.00 0.00 85 1018.7
20220811064714 76 182 0.0 1.7 0.00 0.00 0.00 85 1018.8
20220811063945 76 182 0.0 0.9 0.00 0.00 0.00 84 1019.0
20220811063837 76 182 0.0 1.7 0.00 0.00 0.00 85 1018.9
20220811063449 76 182 0.0 0.0 0.00 0.00 0.00 85 1019.1
20220811062105 77 182 0.0 0.0 0.00 0.00 0.00 85 1019.1
20220811061606 77 182 0.0 0.0 0.00 0.00 0.00 84 1019.2
20220811061338 77 182 0.0 0.9 0.00 0.00 0.00 84 1019.2
20220811060714 78 182 2.6 10.4 0.00 0.00 0.00 84 1019.4
20220811060606 77 182 0.9 4.3 0.00 0.00 0.00 83 1019.3
20220811060337 77 182 1.7 10.4 0.00 0.00 0.00 84 1019.3
20220811055101 78 181 1.7 7.0 0.00 0.00 0.00 85 1019.6
20220811054559 78 181 1.7 7.0 0.00 0.00 0.00 86 1019.5
20220811054331 78 181 0.9 5.2 0.00 0.00 0.00 87 1019.7
20220811053830 77 181 0.0 1.7 0.00 0.00 0.00 87 1019.8
20220811053712 77 181 0.0 1.7 0.00 0.00 0.00 87 1019.9
20220811052833 78 181 0.0 1.7 0.00 0.00 0.00 87 1019.9
20220811052059 78 180 0.0 0.0 0.00 0.00 0.00 87 1019.9
20220811051942 77 181 0.0 1.7 0.00 0.00 0.00 86 1020.0
20220811051604 77 181 0.0 1.7 0.00 0.00 0.00 86 1019.9
20220811051600 78 181 0.0 1.7 0.00 0.00 0.00 86 1019.9
20220811050331 77 181 0.0 1.7 0.00 0.00 0.00 86 1020.0
20220811050206 77 181 0.0 1.7 0.00 0.00 0.00 86 1020.1
20220811045332 77 181 0.0 0.0 0.00 0.00 0.00 85 1020.1
20220811044559 77 181 0.0 0.0 0.00 0.00 0.00 85 1020.1
20220811044100 78 181 0.0 0.0 0.00 0.00 0.00 85 1020.1
20220811043559 78 181 0.0 0.0 0.00 0.00 0.00 84 1019.9
20220811043059 78 180 0.0 1.7 0.00 0.00 0.00 84 1019.9
20220811042831 78 181 0.0 1.7 0.00 0.00 0.00 84 1020.0
20220811042708 78 181 0.0 1.7 0.00 0.00 0.00 83 1020.1
20220811042443 78 181 0.0 1.7 0.00 0.00 0.00 83 1020.0
20220811042100 78 181 0.0 0.9 0.00 0.00 0.00 83 1020.0
20220811041206 78 181 0.0 1.7 0.00 0.00 0.00 83 1020.1
20220811040330 78 181 0.0 0.0 0.00 0.00 0.00 83 1020.2
20220811035829 78 181 0.0 0.0 0.00 0.00 0.00 83 1020.3
20220811035334 78 181 0.0 0.0 0.00 0.00 0.00 83 1020.2
20220811035058 78 180 0.0 0.0 0.00 0.00 0.00 83 1020.2
20220811034328 78 180 0.0 0.0 0.00 0.00 0.00 83 1020.3
20220811033556 78 181 0.0 0.0 0.00 0.00 0.00 83 1020.3
20220811033054 78 181 0.0 0.0 0.00 0.00 0.00 82 1020.4
20220811032553 78 181 0.0 0.0 0.00 0.00 0.00 82 1020.3
20220811032057 78 181 0.0 0.0 0.00 0.00 0.00 82 1020.4
20220811032053 78 181 0.0 0.0 0.00 0.00 0.00 82 1020.3
20220811031059 78 181 0.0 1.7 0.00 0.00 0.00 82 1020.2
20220811031053 78 181 0.0 0.9 0.00 0.00 0.00 82 1020.3
20220811030053 78 181 0.0 1.7 0.00 0.00 0.00 82 1020.2
20220811025554 78 181 0.0 2.6 0.00 0.00 0.00 82 1020.1
20220811025053 78 181 0.0 2.6 0.00 0.00 0.00 83 1020.3
20220811024553 78 180 0.0 0.9 0.00 0.00 0.00 83 1020.1
20220811024322 78 180 0.0 0.0 0.00 0.00 0.00 83 1020.2
20220811023826 78 181 0.0 0.0 0.00 0.00 0.00 82 1020.2
20220811023551 78 180 0.0 0.0 0.00 0.00 0.00 82 1020.2
20220811022825 78 181 0.0 0.0 0.00 0.00 0.00 82 1020.2
20220811022056 78 181 0.0 0.0 0.00 0.00 0.00 82 1020.2
20220811022051 78 180 0.0 1.7 0.00 0.00 0.00 82 1020.1
20220811021551 78 181 0.0 1.7 0.00 0.00 0.00 82 1020.1
20220811021200 79 181 0.0 0.0 0.00 0.00 0.00 81 1020.1
20220811020051 79 181 0.0 0.0 0.00 0.00 0.00 81 1020.0
20220811015551 79 181 0.0 0.0 0.00 0.00 0.00 81 1020.0
20220811015327 79 180 0.0 0.0 0.00 0.00 0.00 80 1020.0
20220811015049 79 181 0.0 0.0 0.00 0.00 0.00 80 1020.0
20220811014930 79 181 0.0 0.0 0.00 0.00 0.00 80 1019.9
20220811013821 79 180 0.0 0.0 0.00 0.00 0.00 80 1019.8
20220811013320 79 181 0.0 0.0 0.00 0.00 0.00 80 1019.6
20220811012819 79 181 0.0 0.0 0.00 0.00 0.00 80 1019.5
20220811012658 80 181 0.0 0.0 0.00 0.00 0.00 79 1019.4
20220811011548 80 181 0.0 0.9 0.00 0.00 0.00 78 1019.4
20220811011049 80 180 0.0 0.9 0.00 0.00 0.00 77 1019.3
20220811010823 80 181 0.0 0.0 0.00 0.00 0.00 78 1019.3
20220811010658 81 180 0.0 1.7 0.00 0.00 0.00 77 1019.3
20220811010318 81 180 0.0 1.7 0.00 0.00 0.00 76 1019.3
20220811005045 81 180 0.0 0.9 0.00 0.00 0.00 76 1019.2
20220811004923 82 180 0.0 2.6 0.00 0.00 0.00 75 1019.1
20220811004815 81 181 0.0 1.7 0.00 0.00 0.00 76 1019.3
20220811003545 82 181 0.0 3.5 0.00 0.00 0.00 74 1019.1
20220811003323 82 180 0.9 3.5 0.00 0.00 0.00 74 1019.0
20220811003046 82 181 0.0 3.5 0.00 0.00 0.00 74 1019.1
20220811002656 82 181 0.0 1.7 0.00 0.00 0.00 74 1019.0
20220811002153 83 181 0.0 1.7 0.00 0.00 0.00 73 1019.0
20220811001313 83 180 0.0 4.3 0.00 0.00 0.00 73 1018.9
20220811000546 83 181 0.0 4.3 0.00 0.00 0.00 72 1018.8
20220811000542 83 180 0.0 0.9 0.00 0.00 0.00 72 1018.8
20220811000151 83 180 0.0 0.9 0.00 0.00 0.00 73 1018.8
20220810235045 84 181 0.0 2.6 0.00 0.00 0.00 72 1018.7
20220810235041 83 180 0.0 2.6 0.00 0.00 0.00 73 1018.6
20220810234042 84 181 0.0 1.7 0.00 0.00 0.00 73 1018.6
20220810233541 84 181 0.0 1.7 0.00 0.00 0.00 73 1018.6
20220810233041 84 181 0.0 0.0 0.00 0.00 0.00 73 1018.7
20220810232541 84 180 0.0 1.7 0.00 0.00 0.00 72 1018.5
20220810232312 84 180 0.0 2.6 0.00 0.00 0.00 73 1018.5
20220810231811 84 181 0.0 2.6 0.00 0.00 0.00 72 1018.7
20220810231039 85 181 0.0 0.9 0.00 0.00 0.00 73 1018.6
20220810230541 85 181 0.0 0.9 0.00 0.00 0.00 75 1018.5